This demonstration page uses our WeatherBlox Daily Observations layout. Learn more.

Left ArrowRight Arrow

38.80484, -77.04692

Hourly Observations for November 26, 2022

Temp ( °F °C ) Dew Point ( °F °C ) Humidity (%) Winds ( mph kmh ) Pressure ( in mb ) Visibility ( mi km ) Precip ( " mm )
12:52 am 00:52 Clear 45 7.2 31 -0.6 58 58 NNW 6 9 30.10 1019 10 16 0.00 0.00
1:52 am 01:52 Clear 45 7.2 30 -1.1 55 55 Calm 30.11 1020 10 16 0.00 0.00
2:52 am 02:52 Clear 45 7.2 29 -1.7 53 53 W 3 6 30.13 1020 10 16 0.00 0.00
3:52 am 03:52 Clear 43 6.1 32 0 65 65 Calm 30.13 1020 10 16 0.00 0.00
4:52 am 04:52 Clear 42 5.6 29 -1.7 59 59 NNW 8 13 30.14 1021 10 16 0.00 0.00
5:52 am 05:52 Clear 39 3.9 32 0 76 76 WSW 6 9 30.15 1021 10 16 0.00 0.00
6:52 am 06:52 Clear 40 4.4 30 -1.1 67 67 WNW 6 9 30.16 1021 10 16 0.00 0.00
7:52 am 07:52 Sunny 45 7.2 31 -0.6 58 58 W 3 6 30.17 1022 10 16 0.00 0.00
8:52 am 08:52 Sunny 46 7.8 37 2.8 71 71 S 7 11 30.17 1022 10 16 0.00 0.00
9:52 am 09:52 Mostly Sunny 49 9.4 34 1.1 56 56 SSE 5 7 30.19 1022 10 16 0.00 0.00
10:52 am 10:52 Mostly Sunny 55 12.8 31 -0.6 40 40 W 8 13 30.17 1022 10 16 0.00 0.00
11:52 am 11:52 Mostly Sunny 57 13.9 29 -1.7 34 34 W 10 17 30.15 1021 10 16 0.00 0.00
12:52 pm 12:52 Mostly Sunny 59 15 30 -1.1 33 33 WSW 10 17 30.12 1020 10 16 0.00 0.00
1:52 pm 13:52 Mostly Sunny 61 16.1 30 -1.1 31 31 WSW 8 13 30.10 1019 10 16 0.00 0.00
2:52 pm 14:52 Mostly Sunny 61 16.1 29 -1.7 29 29 WSW 10 17 30.09 1019 10 16 0.00 0.00
3:52 pm 15:52 Partly Cloudy 59 15 28 -2.2 30 30 SW 6 9 30.09 1019 10 16 0.00 0.00
4:52 pm 16:52 Mostly Cloudy 53 11.7 31 -0.6 43 43 S 7 11 30.08 1019 10 16 0.00 0.00
5:52 pm 17:52 Mostly Cloudy 51 10.6 34 1.1 52 52 S 5 7 30.08 1019 10 16 0.00 0.00
6:52 pm 18:52 Mostly Cloudy 50 10 34 1.1 54 54 SSW 6 9 30.09 1019 10 16 0.00 0.00
7:52 pm 19:52 Mostly Cloudy 47 8.3 35 1.7 63 63 S 6 9 30.09 1019 10 16 0.00 0.00
8:52 pm 20:52 Mostly Cloudy 45 7.2 37 2.8 74 74 S 6 9 30.07 1018 10 16 0.00 0.00
9:52 pm 21:52 Mostly Cloudy 48 8.9 34 1.1 58 58 Calm 30.06 1018 10 16 0.00 0.00
10:52 pm 22:52 Mostly Cloudy 46 7.8 36 2.2 68 68 SSW 3 6 30.03 1017 10 16 0.00 0.00
11:52 pm 23:52 Cloudy 46 7.8 36 2.2 68 68 SSW 5 7 30.01 1016 10 16 0.00 0.00

Powered by AerisWeather